Regional Weather Roundup
Issued by NWS

Home | Current Version | Previous Version | Graphics & Text | Print | Product List | Glossary On
Versions: 1 2 3 4 5 6 7 8 9 10 11 12 13 14 15 16 17 18 19 20 21 22 23 24 25 26 27 28 29 30 31 32 33 34 35 36 37 38 39 40 41 42 43 44 45 46 47 48 49 50
986
ASUS45 KABQ 241910
RWRNM
NEW MEXICO REGIONAL WEATHER ROUNDUP
NATIONAL WEATHER SERVICE ALBUQUERQUE NM
1200 PM MST FRI FEB 24 2017

NOTE: "FAIR" MEANS FEW OR NO CLOUDS BELOW 12,000 FEET AGL WITH NO
       SIGNIFICANT WEATHER OR OBSTRUCTIONS TO VISION.

      THIS PRODUCT IS RELEASED AS TWO VERSIONS.  ONE VERSION NEAR
      THE TOP OF THE HOUR CONTAINING PRELIMINARY DATA FROM ALBUQUERQUE
      AND OTHER STATIONS.  A FINAL VERSION WITH ADDITIONAL DATA IS
      ISSUED ABOUT 10 MINUTES AFTER THE HOUR.

NMZ501-503-504-510>518-242000-
NORTHWEST PLATEAU/NORTHCENTRAL MOUNTAINS

CITY           SKY/WX    TMP DP  RH WIND       PRES   REMARKS
FARMINGTON     PTSUNNY   35   3  26 W17G26    29.95S WCI  25
LOS ALAMOS     FAIR      32  -1  24 SW9G22    29.91F WCI  24
SANTA FE       FAIR      39   0  19 W16G30    29.91F WCI  30
TAOS           PTSUNNY   28   3  34 W17G24    29.89F WCI  16
ANGEL FIRE     CLOUDY    24   3  40 W17G29    29.84S WCI  11

$$
NMZ402-403-502-505>509-242000-
WESTCENTRAL MOUNTAINS/SOUTHWEST MOUNTAINS

CITY           SKY/WX    TMP DP  RH WIND       PRES   REMARKS
GALLUP         FAIR      37   3  24 W22G30    30.00R WCI  26
GRANTS         FAIR      38  -2  18 W16G33    29.98S WCI  30
SILVER CITY    FAIR      46   9  22 NW12      30.05F

$$
NMZ407-409-411-412-242000-
SOUTHERN DESERTS

CITY           SKY/WX    TMP DP  RH WIND       PRES   REMARKS
DEMING         FAIR      53  10  18 W17G26    30.04F
LAS CRUCES     FAIR      52   7  16 W23G33    30.02F
HOLLOMAN AFB   FAIR      52   2  12 VRB6      30.03F
ALAMOGORDO     FAIR      52   5  15 NW8       30.01F
T OR C         FAIR      49   5  16 S6        29.97F

$$
NMZ519>523-242000-
CENTRAL VALLEYS/CENTRAL HIGHLANDS

CITY           SKY/WX    TMP DP  RH WIND       PRES   REMARKS
ALBUQUERQUE    FAIR      42   0  17 W25       29.98F
DOUBLE EAGLE   MOSUNNY   39   3  22 W18G24    29.97F WCI  30
MORIARTY ARPT  FAIR      41   1  18 W23G31    29.94F
CLINES CORNERS FAIR      36   1  22 W29G35    29.90S WCI  23
BELEN          FAIR      45   2  16 W12G17    29.99F
SOCORRO        FAIR      49   9  19 SE5       29.97F

$$
NMZ524>526-539-540-242000-
SOUTHCENTRAL MOUNTAINS

CITY           SKY/WX    TMP DP  RH WIND       PRES   REMARKS
RUIDOSO        FAIR      41  -2  16 NW18G26   29.96S

$$
NMZ527>531-242000-
NORTHEAST HIGHLANDS/NORTHEAST PLAINS

CITY           SKY/WX    TMP DP  RH WIND       PRES   REMARKS
LAS VEGAS      FAIR      37  -1  20 NW12G23   29.86R WCI  29
RATON          FAIR      38   4  24 W20G28    29.82F WCI  28
CLAYTON        FAIR      37  18  46 NE9G20    29.91F WCI  30

$$
NMZ532>537-242000-
EASTCENTRAL PLAINS

CITY           SKY/WX    TMP DP  RH WIND       PRES   REMARKS
TUCUMCARI      FAIR      45  20  36 E7        29.91F
CANNON AFB     SUNNY     50  13  22 W14G26    29.90F
CLOVIS AIRPORT FAIR      45  23  42 CALM      29.91F

$$
NMZ028-029-538-242000-
SOUTHEAST PLAINS

CITY           SKY/WX    TMP DP  RH WIND       PRES   REMARKS
ROSWELL        FAIR      59   8  13 VRB6        N/A
ARTESIA        FAIR      57   9  14 VRB5      29.93F
CARLSBAD         N/A     65   2   8 MISG      29.91F
HOBBS          SUNNY     57   7  13 W10G16    29.95F


$$




USA.gov is the U.S. government's official web portal to all federal, state and local government web resources and services.